Change the Weather History Date:

Monday, November 14, 2011

  Actual Average Record
Temperature  
Mean Temperature 66 °F 56 °F  
Max Temperature 79 °F 69 °F 88 °F (1989)
Min Temperature 52 °F 43 °F 18 °F (1976)
Degree Days  
Heating Degree Days 0 10  
Month to date heating degree days 85 106  
Since 1 July heating degree days 150 197  
Cooling Degree Days 1 1  
Month to date cooling degree days 33 15  
Year to date cooling degree days 3746 2499  
Growing Degree Days 16 (Base 50)    
Moisture  
Dew Point 53 °F    
Average Humidity 60    
Maximum Humidity 80    
Minimum Humidity 39    
Precipitation  
Precipitation 0.00 in 0.04 in 3.25 in (1934)
Month to date precipitation 0.30 0.67  
Year to date precipitation 8.22 19.93  
Snow  
Snow 0.00 in 0.00 in T in (1959)
Month to date snowfall 0.0 0.1  
Since 1 July snowfall 0.0 0.1  
Snow Depth 0.00 in    
Sea Level Pressure  
Sea Level Pressure 29.82 in    
Wind  
Wind Speed 6 mph (SSW)    
Max Wind Speed 17 mph    
Max Gust Speed 21 mph    
Visibility 10 miles    
Events      
T = Trace of Precipitation, MM = Missing Value Source: NWS Daily Summary

Daily Weather History Graph

Daily Weather History Graph

Search for Another Location

Airport or City:

Trip Planner

Search our weather history database for the weather conditions in past years. The results will help you decide how hot, cold, wet, or windy it might be!

Date:

Astronomy

Nov. 14, 2011 Rise Set
Actual Time 7:08 AM CST 5:44 PM CST
Civil Twilight 6:42 AM CST 6:09 PM CST
Nautical Twilight 6:13 AM CST 6:38 PM CST
Astronomical Twilight 5:44 AM CST 7:07 PM CST
Moon 8:56 PM CST (11/14) 10:23 AM CST (11/14)
Length of Visible Light 11h 26m
Length of Day
10h 35m
Waning Gibbous, 86% of the Moon is Illuminated
Nov 14
Waning Gibbous
Nov 18
Last Quarter
Nov 25
New
Dec 2
First Quarter
Dec 10
Full

Hourly Weather History & Observations

Time (CST) Temp. Dew Point Humidity Pressure Visibility Wind Dir Wind Speed Gust Speed Precip Events Conditions
12:51 AM 63.0 °F 46.9 °F 56% 29.81 in 10.0 mi South 6.9 mph - N/A   Clear
1:51 AM 59.0 °F 46.9 °F 64% 29.81 in 10.0 mi Calm Calm - N/A   Clear
2:51 AM 59.0 °F 46.9 °F 64% 29.80 in 10.0 mi Calm Calm - N/A   Clear
3:51 AM 55.0 °F 45.0 °F 69% 29.80 in 10.0 mi Calm Calm - N/A   Clear
4:51 AM 55.9 °F 48.0 °F 75% 29.81 in 10.0 mi SSW 4.6 mph - N/A   Clear
5:51 AM 55.0 °F 48.9 °F 80% 29.82 in 10.0 mi SW 4.6 mph - N/A   Clear
6:51 AM 53.1 °F 46.9 °F 80% 29.85 in 10.0 mi WNW 5.8 mph - N/A   Clear
7:51 AM 57.9 °F 51.1 °F 78% 29.87 in 10.0 mi WSW 4.6 mph - N/A   Clear
8:11 AM 60.8 °F 53.6 °F 77% 29.91 in 10.0 mi SW 9.2 mph - N/A   Mostly Cloudy
8:29 AM 62.6 °F 55.4 °F 77% 29.91 in 10.0 mi SSW 17.3 mph 20.7 mph N/A   Scattered Clouds
8:47 AM 62.6 °F 55.4 °F 77% 29.92 in 10.0 mi SSW 16.1 mph - N/A   Scattered Clouds
8:51 AM 62.1 °F 55.9 °F 80% 29.88 in 10.0 mi SSW 10.4 mph - N/A   Mostly Cloudy
9:01 AM 62.6 °F 55.4 °F 77% 29.91 in 10.0 mi SSW 13.8 mph - N/A   Scattered Clouds
9:12 AM 62.6 °F 57.2 °F 82% 29.92 in 10.0 mi SSW 13.8 mph - N/A   Mostly Cloudy
9:26 AM 64.4 °F 57.2 °F 77% 29.92 in 10.0 mi SSW 12.7 mph - N/A   Scattered Clouds
9:51 AM 66.0 °F 59.0 °F 78% 29.87 in 10.0 mi SSW 13.8 mph - N/A   Scattered Clouds
10:51 AM 70.0 °F 60.1 °F 71% 29.86 in 10.0 mi South 11.5 mph - N/A   Clear
11:51 AM 73.9 °F 57.9 °F 57% 29.84 in 10.0 mi South 9.2 mph - N/A   Clear
12:51 PM 75.9 °F 55.0 °F 48% 29.79 in 10.0 mi South 5.8 mph - N/A   Clear
1:51 PM 78.1 °F 53.1 °F 42% 29.76 in 10.0 mi SSE 4.6 mph - N/A   Clear
2:51 PM 78.1 °F 52.0 °F 40% 29.73 in 10.0 mi SE 3.5 mph - N/A   Clear
3:51 PM 78.1 °F 51.1 °F 39% 29.73 in 10.0 mi South 3.5 mph - N/A   Clear
4:51 PM 77.0 °F 51.1 °F 40% 29.73 in 10.0 mi SSE 3.5 mph - N/A   Clear
5:51 PM 73.9 °F 57.0 °F 55% 29.70 in 10.0 mi SE 11.5 mph - N/A   Clear
6:51 PM 72.0 °F 57.0 °F 59% 29.74 in 10.0 mi South 6.9 mph - N/A   Clear
7:51 PM 69.8 °F 55.4 °F 60% 29.80 in 10.0 mi SSW 5.8 mph - N/A   Clear
8:51 PM 68.0 °F 57.0 °F 68% 29.78 in 10.0 mi West 6.9 mph - N/A   Clear
9:51 PM 66.0 °F 55.9 °F 70% 29.80 in 10.0 mi WSW 6.9 mph - N/A   Clear
10:51 PM 64.0 °F 55.9 °F 75% 29.79 in 10.0 mi WSW 4.6 mph - N/A   Clear
11:51 PM 62.1 °F 55.0 °F 78% 29.78 in 10.0 mi SW 5.8 mph - N/A   Partly Cloudy